Погода в Хасси-Мессауд

Алжир     31°43′52″N   6°03′10″E
темп.,
°C
ветер,
м/с
пор.,
м/с
влажн.,
%
обл.,
%
осадки,
мм/ч
давл.,
гПа
погр.,
м
15 мая, сб
сб1501:00+29всв3318100 0.0 101315
04:00+26св592274 0.0 1013137
07:00+26ссв5927100 0.0 1015298
10:00+31св561874 0.0 1016759
13:00+34св321458 0.0 10151645
16:00+36с351282 0.0 10132238
19:00+34с681589 0.0 1014254
22:00+30св571975 0.0 101685
16 мая, вс
вс1601:00+28в442063 0.0 101540
04:00+27вюв4523100 0.0 101461
07:00+27ююв452399 0.0 1015122
10:00+33юв3314100 0.0 1016711
13:00+37ю221197 0.0 10141589
16:00+38юз119100 0.0 10122878
19:00+36св1110100 0.0 101214
22:00+34в331179 0.0 101314
17 мая, пн
пн1701:00+32юв341451 0.0 101219
04:00+30ююв551679 0.0 101245
07:00+30ююв4715100 0.0 1013118
10:00+36ю6610100 0.0 1013638
13:00+40ююв44791 0.0 10122875
16:00+41ююв22696 0.0 10103454
19:00+39вюв337100 0.0 101013
22:00+35ююв33862 0.0 101215
18 мая, вт
вт1801:00+33юв449100 0.0 101118
04:00+32юв691098 0.0 101096
07:00+32юв5101043 0.0 1011147
10:00+38ююз45658 0.0 1012599
13:00+41з32590 0.0 10122409
16:00+41сз325100 0.0 10104188
19:00+38ссз348100 0.0 101052
22:00+35ссв691099 0.0 1012106
19 мая, ср
ср1901:00+30всв8132499 0.0 1012336
04:00+25всв7123662 0.0 1013352
07:00+24всв9133718 0.0 1014408
10:00+29св77275 0.0 1016767
13:00+35всв88180 0.0 10141243
16:00+37св87140 0.0 10121489
19:00+35св913160 0.0 1012506
22:00+29всв1115260 0.0 1015510